This is the latest recevied weather packets stored in our database for station/object DO1SN-13. If no packets are shown the sender has not sent any weather packets the latest 10 day(s).
| Time | Temp. | Humidity | Pressure | Rain* | Wind** | Luminosity | Snow |
|---|---|---|---|---|---|---|---|
| 1787848472 | 32.22° C | - | 1015.6 hPa | 0 mm | - | - | - |
| 1787848108 | 31.11° C | - | 1015.7 hPa | 0 mm | - | - | - |
| 1787847744 | 32.78° C | - | 1015.7 hPa | 0 mm | - | - | - |
| 1787847379 | 31.67° C | - | 1015.8 hPa | 0 mm | - | - | - |
| 1787847015 | 32.22° C | - | 1015.8 hPa | 0 mm | - | - | - |
| 1787846651 | 32.78° C | - | 1015.7 hPa | 0 mm | - | - | - |
| 1787846287 | 32.78° C | - | 1016 hPa | 0 mm | - | - | - |
| 1787845923 | 32.22° C | - | 1015.9 hPa | 0 mm | - | - | - |
| 1787845559 | 32.78° C | - | 1016 hPa | 0 mm | - | - | - |
| 1787845194 | 33.89° C | - | 1016 hPa | 0 mm | - | - | - |
| 1787844830 | 33.89° C | - | 1016 hPa | 0 mm | - | - | - |
| 1787844466 | 33.33° C | - | 1016.1 hPa | 0 mm | - | - | - |
| 1787844102 | 33.33° C | - | 1016.1 hPa | 0 mm | - | - | - |
| 1787843738 | 32.78° C | - | 1016.1 hPa | 0 mm | - | - | - |
| 1787843373 | 34.44° C | - | 1015.9 hPa | 0 mm | - | - | - |
| 1787842645 | 35° C | - | 1015.9 hPa | 0 mm | - | - | - |
| 1787842281 | 35.56° C | - | 1015.8 hPa | 0 mm | - | - | - |
| 1787841917 | 35° C | - | 1015.8 hPa | 0 mm | - | - | - |
| 1787841553 | 35° C | - | 1015.7 hPa | 0 mm | - | - | - |
| 1787841188 | 35.56° C | - | 1015.8 hPa | 0 mm | - | - | - |
| 1787840824 | 37.78° C | - | 1015.9 hPa | 0 mm | - | - | - |
| 1787840460 | 36.67° C | - | 1015.9 hPa | 0 mm | - | - | - |
| 1787840096 | 38.33° C | - | 1016 hPa | 0 mm | - | - | - |
| 1787839732 | 37.78° C | - | 1016.1 hPa | 0 mm | - | - | - |
| 1787839367 | 38.89° C | - | 1016 hPa | 0 mm | - | - | - |
* Rain latest hour (hover to see other rain measurements)
** Current wind speed in m/s (hover to see current wind gust speed)